This is the latest recevied weather packets stored in our database for station/object KC0OOO-WX. If no packets are shown the sender has not sent any weather packets the latest 10 day(s).
| Time | Temp. | Humidity | Pressure | Rain* | Wind** | Luminosity | Snow |
|---|---|---|---|---|---|---|---|
| 1777320119 | 12.78° C | 47% | 1016.9 hPa | 0 mm | - | - | - |
| 1777319518 | 11.67° C | 46% | 1016.9 hPa | 0 mm | - | - | - |
| 1777318919 | 8.89° C | 49% | 1016.9 hPa | 0 mm | - | - | - |
| 1777318318 | 8.89° C | 48% | 1016.9 hPa | 0 mm | - | - | - |
| 1777317688 | 9.44° C | 46% | 1016.9 hPa | 0 mm | - | - | - |
| 1777317058 | 10.56° C | 45% | 1017.3 hPa | 0 mm | - | - | - |
| 1777316458 | 10.56° C | 48% | 1017.3 hPa | 0 mm | - | - | - |
| 1777315858 | 10° C | 46% | 1017.3 hPa | 0 mm | - | - | - |
| 1777315257 | 9.44° C | 49% | 1017.3 hPa | 0 mm | - | - | - |
| 1777314658 | 9.44° C | 52% | 1017.6 hPa | 0 mm | - | - | - |
| 1777314057 | 9.44° C | 47% | 1017.6 hPa | 0 mm | - | - | - |
| 1777313457 | 10° C | 49% | 1017.6 hPa | 0 mm | - | - | - |
| 1777312857 | 8.89° C | 55% | 1017.6 hPa | 0 mm | - | - | - |
| 1777312257 | 7.78° C | 56% | 1017.3 hPa | 0 mm | - | - | - |
| 1777311657 | 8.33° C | 53% | 1017.3 hPa | 0 mm | - | - | - |
| 1777311058 | 8.89° C | 55% | 1017.3 hPa | 0 mm | - | - | - |
| 1777310457 | 8.89° C | 56% | 1017.3 hPa | 0 mm | - | - | - |
| 1777309827 | 9.44° C | 54% | 1017.3 hPa | 0 mm | - | - | - |
| 1777309197 | 8.33° C | 61% | 1017.3 hPa | 0 mm | - | - | - |
| 1777308597 | 8.33° C | 55% | 1016.9 hPa | 0 mm | - | - | - |
| 1777307997 | 8.89° C | 57% | 1016.9 hPa | 0 mm | - | - | - |
| 1777307397 | 8.33° C | 62% | 1016.9 hPa | 0 mm | - | - | - |
| 1777306797 | 8.33° C | 62% | 1016.9 hPa | 0 mm | - | - | - |
| 1777306197 | 7.78° C | 63% | 1016.9 hPa | 0 mm | - | - | - |
| 1777305597 | 7.22° C | 60% | 1016.9 hPa | 0 mm | - | - | - |
* Rain latest hour (hover to see other rain measurements)
** Current wind speed in m/s (hover to see current wind gust speed)